User: anonymous   Login
Location: Escondida
(34.1015°N, 106.8964°W)
Time: 21:21:21
(UTC+00:00)
Language:

ACS3 Solar Sail - Orbit

View from above orbital plane
View from above orbital plane
View from above satellite
View from above satellite

Ground track
Ground track

The orbit is defined by the following mean orbital elements,

1 59588U          26075.12162067 +.00000000 +00000-0 +92522-2 0 00005
2 59588  97.2032  14.7875 0065432  61.1551 299.6160 13.89884707    09
Epoch (UTC): 16 March 2026 02:55:08
Eccentricity: 0.0065432
inclination: 97.2032°
perigee height: 881 km
apogee height: 977 km
right ascension of ascending node: 14.7875°
argument of perigee: 61.1551°
revolutions per day: 13.89884707
mean anomaly at epoch: 299.6160°

The dashed part of the orbit path shows where the satellite is in the earth's shadow,  

DLR